Location: Launois
(49.6535°N, 4.5395°E)
Time: 09:20:58
(UTC+00:00)

CZ-2D R/B - Pass Details

Date: 17 August 2024
Orbit: 791 x 842 km, 98.8° (Epoch: 16 September)

Event Time Altitude Azimuth Distance (km) Brightness Sun altitude
Rises 00:41:49 0° 25° (NNE) 3,345 6.6 -25.8°
Reaches altitude 10° 00:44:41 10° 40° (NE) 2,417 5.4 -25.7°
Maximum altitude 00:48:51 23° 92° (E) 1,700 3.9 -25.5°
Enters shadow 00:50:39 19° 119° (ESE) 1,859 3.8 -25.4°
